Time,TemperatureF,DewpointF,PressureIn,WindDirection,WindDirectionDegrees,WindSpeedMPH,WindSpeedGustMPH,Humidity,HourlyPrecipIn,Conditions,Clouds,dailyrainin,SoftwareType,DateUTC
2013-07-29 08:50:00,55.6,51.1,30.13,North,0,0.0,0.0,85,0.00,,,0.00,WUHU21623XXSP,2013-07-29 12:50:00,
2013-07-29 08:51:00,55.8,51.3,30.13,North,0,0.0,0.0,85,0.00,,,0.00,WUHU21623XXSP,2013-07-29 12:51:00,
2013-07-29 08:56:00,55.9,51.4,30.14,NNW,337,0.0,0.0,85,0.00,,,0.00,WUHU21623XXSP,2013-07-29 12:56:00,
2013-07-29 09:01:00,55.9,51.4,30.14,NNW,337,0.0,0.0,85,0.00,,,0.00,WUHU21623XXSP,2013-07-29 13:01:00,
2013-07-29 09:07:00,55.9,51.4,30.14,NNW,337,0.0,0.0,85,0.00,,,0.00,WUHU21623XXSP,2013-07-29 13:07:00,
2013-07-29 09:12:00,55.9,51.4,30.14,NNW,337,0.0,0.0,85,0.00,,,0.00,WUHU21623XXSP,2013-07-29 13:12:00,
2013-07-29 09:17:00,55.9,51.4,30.14,North,0,0.0,0.0,85,0.00,,,0.00,WUHU21623XXSP,2013-07-29 13:17:00,
2013-07-29 11:03:00,65.6,57.2,30.16,North,0,0.0,0.0,74,0.00,,,0.00,WUHU21623XXSP,2013-07-29 15:03:00,
2013-07-29 11:09:00,65.3,56.9,30.16,NW,315,0.0,0.0,74,0.00,,,0.00,WUHU21623XXSP,2013-07-29 15:09:00,
2013-07-29 11:14:00,65.0,56.6,30.16,WNW,292,0.0,0.0,74,0.00,,,0.00,WUHU21623XXSP,2013-07-29 15:14:00,
2013-07-29 11:19:00,64.6,56.3,30.16,WNW,292,0.0,0.0,74,0.00,,,0.00,WUHU21623XXSP,2013-07-29 15:19:00,
2013-07-29 11:24:00,64.9,55.5,30.16,WNW,292,0.0,0.0,71,0.00,,,0.00,WUHU21623XXSP,2013-07-29 15:24:00,
2013-07-29 11:29:00,64.6,55.2,30.16,WNW,292,0.0,0.0,71,0.00,,,0.00,WUHU21623XXSP,2013-07-29 15:29:00,
2013-07-29 11:34:00,64.3,54.9,30.17,WNW,292,0.0,0.0,71,0.00,,,0.00,WUHU21623XXSP,2013-07-29 15:34:00,
2013-07-29 11:39:00,65.2,55.0,30.17,SW,225,0.0,0.0,69,0.00,,,0.00,WUHU21623XXSP,2013-07-29 15:39:00,
2013-07-29 11:45:00,64.9,54.3,30.17,NNW,337,0.0,0.0,68,0.00,,,0.00,WUHU21623XXSP,2013-07-29 15:45:00,
2013-07-29 11:50:00,64.6,54.0,30.17,NNW,337,0.0,0.0,68,0.00,,,0.00,WUHU21623XXSP,2013-07-29 15:50:00,
2013-07-29 11:55:00,65.0,53.9,30.17,WNW,292,0.0,0.0,67,0.00,,,0.00,WUHU21623XXSP,2013-07-29 15:55:00,
2013-07-29 12:00:00,65.0,53.9,30.17,WNW,292,0.0,0.0,67,0.00,,,0.00,WUHU21623XXSP,2013-07-29 16:00:00,
2013-07-29 12:05:00,64.7,53.7,30.17,WNW,292,0.0,0.0,67,0.00,,,0.00,WUHU21623XXSP,2013-07-29 16:05:00,
2013-07-29 12:10:00,64.4,52.9,30.17,North,0,0.0,0.0,66,0.00,,,0.00,WUHU21623XXSP,2013-07-29 16:10:00,
2013-07-29 12:15:00,64.1,52.7,30.17,North,0,0.0,0.0,66,0.00,,,0.00,WUHU21623XXSP,2013-07-29 16:15:00,
2013-07-29 12:20:00,63.9,52.5,30.17,North,0,0.0,0.0,66,0.00,,,0.00,WUHU21623XXSP,2013-07-29 16:20:00,
2013-07-29 12:26:00,63.9,52.5,30.17,North,0,0.0,0.0,66,0.00,,,0.00,WUHU21623XXSP,2013-07-29 16:26:00,
2013-07-29 12:35:00,63.2,51.4,30.17,North,0,0.0,0.0,65,0.00,,,0.00,WUHU21623XXSP,2013-07-29 16:35:00,
2013-07-29 12:40:00,63.1,51.3,30.17,NNW,337,0.0,0.0,65,0.00,,,0.00,WUHU21623XXSP,2013-07-29 16:40:00,
2013-07-29 12:45:00,62.9,51.2,30.17,NNW,337,0.0,0.0,65,0.00,,,0.00,WUHU21623XXSP,2013-07-29 16:45:00,
2013-07-29 12:50:00,62.8,51.0,30.17,NNW,337,0.0,0.0,65,0.00,,,0.00,WUHU21623XXSP,2013-07-29 16:50:00,
2013-07-29 12:55:00,62.6,50.8,30.17,NNW,337,0.0,0.0,65,0.00,,,0.00,WUHU21623XXSP,2013-07-29 16:55:00,
2013-07-29 13:00:00,62.4,50.7,30.17,NNW,337,0.0,0.0,65,0.00,,,0.00,WUHU21623XXSP,2013-07-29 17:00:00,
2013-07-29 13:05:00,62.5,50.7,30.17,NNW,337,0.0,0.0,65,0.00,,,0.00,WUHU21623XXSP,2013-07-29 17:05:00,
2013-07-29 13:10:00,62.6,50.8,30.17,WNW,292,0.0,0.0,65,0.00,,,0.00,WUHU21623XXSP,2013-07-29 17:10:00,
2013-07-29 13:15:00,62.9,50.7,30.17,NNW,337,0.0,0.0,64,0.00,,,0.00,WUHU21623XXSP,2013-07-29 17:15:00,
2013-07-29 13:20:00,62.8,50.6,30.17,NW,315,0.0,0.0,64,0.00,,,0.00,WUHU21623XXSP,2013-07-29 17:20:00,
2013-07-29 13:25:00,62.7,50.5,30.17,NW,315,0.0,0.0,64,0.00,,,0.00,WUHU21623XXSP,2013-07-29 17:25:00,
2013-07-29 13:30:00,62.6,50.4,30.17,NW,315,0.0,0.0,64,0.00,,,0.00,WUHU21623XXSP,2013-07-29 17:30:00,
2013-07-29 13:31:00,62.6,50.4,30.17,North,0,0.0,0.0,64,0.00,,,0.00,WUHU21623XXSP,2013-07-29 17:31:00,
2013-07-29 13:35:00,62.6,50.4,30.17,NW,315,0.0,0.0,64,0.00,,,0.00,WUHU21623XXSP,2013-07-29 17:35:00,
2013-07-29 13:41:00,62.6,50.4,30.17,North,0,0.0,0.0,64,0.00,,,0.00,WUHU21623XXSP,2013-07-29 17:41:00,
2013-07-29 13:46:00,62.7,50.0,30.17,NNW,337,0.0,0.0,63,0.00,,,0.00,WUHU21623XXSP,2013-07-29 17:46:00,
2013-07-29 13:51:00,63.0,50.8,30.17,NW,315,0.0,0.0,64,0.00,,,0.00,WUHU21623XXSP,2013-07-29 17:51:00,
2013-07-29 13:57:00,63.0,50.8,30.17,NW,315,0.0,0.0,64,0.00,,,0.00,WUHU21623XXSP,2013-07-29 17:57:00,
2013-07-29 14:02:00,63.0,50.8,30.17,NW,315,0.0,0.0,64,0.00,,,0.00,WUHU21623XXSP,2013-07-29 18:02:00,
2013-07-29 14:03:00,63.0,50.8,30.17,North,0,0.0,0.0,64,0.00,,,0.00,WUHU21623XXSP,2013-07-29 18:03:00,
2013-07-29 14:07:00,63.0,50.8,30.17,NW,315,0.0,0.0,64,0.00,,,0.00,WUHU21623XXSP,2013-07-29 18:07:00,
2013-07-29 14:12:00,63.0,50.8,30.17,North,0,0.0,0.0,64,0.00,,,0.00,WUHU21623XXSP,2013-07-29 18:12:00,
2013-07-29 14:25:00,63.9,51.2,30.18,North,0,0.0,0.0,63,0.00,,,0.00,WUHU21623XXSP,2013-07-29 18:25:00,
2013-07-29 14:30:00,64.1,51.4,30.18,NNW,337,0.0,0.0,63,0.00,,,0.00,WUHU21623XXSP,2013-07-29 18:30:00,
2013-07-29 14:35:00,64.2,51.5,30.17,NNW,337,0.0,0.0,63,0.00,,,0.00,WUHU21623XXSP,2013-07-29 18:35:00,
2013-07-29 14:40:00,64.5,51.4,30.17,NNW,337,0.0,0.0,62,0.00,,,0.00,WUHU21623XXSP,2013-07-29 18:40:00,
2013-07-29 14:45:00,64.4,51.3,30.17,NNW,337,0.0,0.0,62,0.00,,,0.00,WUHU21623XXSP,2013-07-29 18:45:00,
2013-07-29 14:50:00,64.6,51.4,30.17,NW,315,0.0,0.0,62,0.00,,,0.00,WUHU21623XXSP,2013-07-29 18:50:00,
2013-07-29 14:55:00,64.7,51.6,30.17,West,270,0.0,0.0,62,0.00,,,0.00,WUHU21623XXSP,2013-07-29 18:55:00,
2013-07-29 15:01:00,64.9,51.7,30.17,West,270,0.0,0.0,62,0.00,,,0.00,WUHU21623XXSP,2013-07-29 19:01:00,
2013-07-29 15:05:00,65.0,51.8,30.17,West,270,0.0,0.0,62,0.00,,,0.00,WUHU21623XXSP,2013-07-29 19:05:00,
2013-07-29 15:11:00,65.0,51.8,30.17,North,0,0.0,0.0,62,0.00,,,0.00,WUHU21623XXSP,2013-07-29 19:11:00,
2013-07-29 15:57:00,67.9,54.6,30.17,North,0,0.0,0.0,62,0.00,,,0.00,WUHU21623XXSP,2013-07-29 19:57:00,
2013-07-29 16:02:00,68.4,55.1,30.17,NNW,337,0.0,0.0,62,0.00,,,0.00,WUHU21623XXSP,2013-07-29 20:02:00,
2013-07-29 16:07:00,68.7,55.3,30.16,NNW,337,0.0,0.0,62,0.00,,,0.00,WUHU21623XXSP,2013-07-29 20:07:00,
2013-07-29 16:13:00,69.0,55.6,30.16,NNW,337,0.0,0.0,62,0.00,,,0.00,WUHU21623XXSP,2013-07-29 20:13:00,
2013-07-29 16:18:00,69.1,55.7,30.16,NNW,337,0.0,0.0,62,0.00,,,0.00,WUHU21623XXSP,2013-07-29 20:18:00,
2013-07-29 16:23:00,69.1,55.7,30.16,North,0,0.0,0.0,62,0.00,,,0.00,WUHU21623XXSP,2013-07-29 20:23:00,